EHI
9 20 32 31 24 26 43 71 93 100 100 100 96 87 78 74 70 57 34 13 3 0 0 0 1 2 6 11 14 13 6 0 0 0 0 0 0 0 0 0 0 0 0
19 36 49 43 36 40 54 75 92 97 95 91 85 77 65 55 48 39 26 12 4 1 1 1 1 4 9 13 16 15 7 0 0 0 0 0 0 0 0 0 0 0 0
26 50 66 62 55 57 65 75 85 85 76 64 55 49 38 27 20 16 12 8 4 2 4 3 2 5 11 15 16 13 6 0 0 0 0 0 0 0 0 0 0 0 0
27 54 74 68 61 60 61 63 65 58 43 29 22 19 14 8 5 4 3 3 1 2 4 5 3 5 9 12 11 8 4 1 0 0 0 0 0 0 0 0 0 0 0
30 56 73 65 57 54 48 41 36 28 18 9 6 6 5 2 0 0 1 1 0 1 3 3 4 6 7 6 5 5 4 2 0 0 0 0 0 0 0 0 0 0 0
33 57 72 68 61 49 35 24 17 13 8 5 4 4 3 1 1 1 1 1 2 3 4 3 4 6 5 3 2 4 4 2 0 0 0 0 0 0 0 0 0 0 0
37 59 73 70 59 38 22 14 11 10 7 4 2 2 2 1 1 1 0 1 4 6 5 4 3 4 3 1 1 2 3 1 0 0 0 0 0 0 0 0 0 0 0
39 53 59 53 37 19 9 7 7 10 7 3 0 1 3 2 1 1 1 2 4 4 3 2 2 1 1 0 0 0 1 0 0 0 0 0 0 0 0 0 0 0 0
30 32 31 26 18 10 7 5 6 10 9 4 1 1 2 2 1 0 2 3 3 1 0 0 0 0 0 0 0 0 0 0 0 0 0 0 0 0 0 0 0 0 0
12 11 9 9 12 20 24 18 12 14 15 9 2 1 1 1 0 0 1 2 1 1 0 0 0 0 0 0 0 0 0 0 0 0 0 0 0 0 0 0 0 0 0
1 1 1 2 12 35 52 48 32 28 29 22 8 2 0 0 0 0 0 1 1 1 1 0 0 0 0 0 0 0 0 0 0 0 0 0 0 0 0 0 0 0 0
0 0 0 0 10 36 64 71 60 55 56 43 21 7 1 0 0 0 1 2 3 2 1 0 0 0 0 0 0 0 0 0 0 0 0 0 0 0 0 0 0 0 0
0 0 0 0 4 21 47 68 76 81 82 68 40 15 3 1 1 2 3 4 5 4 1 0 0 0 0 0 0 0 0 0 0 0 0 0 0 0 0 0 0 0 0
0 0 0 0 1 6 21 43 67 86 95 84 53 19 4 5 9 8 6 4 4 4 1 0 0 0 0 0 0 0 0 0 0 0 0 0 0 0 0 0 0 0 0
1 1 1 0 0 1 7 22 49 78 93 82 51 18 7 17 29 30 20 9 2 2 1 0 0 0 0 0 0 0 0 0 0 0 0 0 0 0 0 0 0 0 0
5 6 9 12 13 12 15 25 48 72 80 67 43 27 24 39 57 59 43 25 11 5 1 0 0 0 0 0 0 0 0 0 0 0 0 0 0 0 0 0 0 0 0
10 11 17 26 32 35 39 48 59 68 68 56 48 48 53 64 76 74 58 40 27 14 5 1 0 0 0 0 0 0 0 0 0 0 0 0 0 0 0 0 0 0 0
8 7 11 20 28 35 42 46 49 50 51 49 52 60 67 71 73 67 53 41 33 21 9 3 1 0 0 0 0 0 0 0 0 0 0 0 0 0 0 0 0 0 0
2 1 2 4 8 13 16 18 18 21 25 28 33 41 46 48 48 43 36 31 27 20 12 7 3 1 1 0 0 0 0 0 0 0 0 0 0 0 0 0 0 0 0
0 0 0 0 0 0 0 0 1 3 5 7 9 12 15 17 18 17 16 17 16 13 12 10 5 2 1 0 0 0 0 0 0 0 0 0 0 0 0 0 0 0 0
0 0 0 0 0 0 0 0 0 0 0 0 0 0 1 2 2 3 3 4 5 6 8 8 5 2 1 0 0 0 0 0 0 0 0 0 0 0 0 0 0 0 0
0 0 0 0 0 0 0 0 0 0 0 0 0 0 0 0 0 0 0 0 0 1 3 2 2 1 0 0 0 0 0 0 0 0 0 0 0 0 0 0 0 0 0
0 0 0 0 0 0 0 0 0 0 0 0 0 0 0 0 0 0 0 0 0 0 0 0 0 0 0 0 0 0 0 0 0 0 0 0 0 0 0 0 0 0 0
0 0 0 0 0 0 0 0 0 0 0 0 0 0 0 0 0 0 0 0 0 0 0 0 0 0 0 0 0 0 0 0 0 0 0 0 0 0 0 0 0 0 0
0 0 0 0 0 0 0 0 0 0 0 0 0 0 0 0 0 0 0 0 0 0 0 0 0 0 0 0 0 0 0 0 0 0 0 0 0 0 0 0 0 0 0
0 0 0 0 0 0 0 0 0 0 0 0 0 0 0 0 0 0 0 0 0 0 0 0 0 0 0 0 0 0 0 0 0 0 0 0 0 0 0 0 0 0 0
Wind_Speed
10 9 10 7 6 5 5 8 9 6 4 3 2 1 2 2 3 2 3 3 3 4 4 5 5 3 4 4 4 4 4 2 2 2 2 1 0 4 1 2 3 4 4
9 12 10 7 5 6 6 8 8 6 5 3 2 2 2 2 3 3 3 4 5 5 3 6 4 3 3 5 4 4 3 2 2 3 2 1 1 1 2 2 2 3 2
11 15 12 9 7 7 6 7 8 7 5 4 2 1 2 1 2 4 3 4 5 5 4 5 5 4 3 4 4 5 5 3 2 2 4 3 3 2 1 4 2 3 1
7 14 12 11 9 7 7 9 8 7 6 5 3 4 4 4 5 4 5 5 6 6 5 4 5 5 4 4 5 5 4 5 3 3 3 4 5 4 2 2 2 4 3
9 14 12 12 11 9 7 8 7 7 7 6 6 4 3 3 3 3 5 6 5 6 6 6 5 5 4 5 4 4 5 5 5 4 4 3 2 4 4 3 3 2 3
9 13 11 11 11 9 7 7 7 6 5 5 5 5 5 4 3 3 3 3 3 4 6 6 6 6 5 6 6 5 6 7 7 6 6 4 3 3 2 4 5 4 4
9 13 12 11 9 8 7 8 7 7 6 5 6 6 6 5 5 5 4 4 3 3 4 5 5 5 5 6 6 6 6 7 9 9 8 6 4 4 3 3 4 4 3
10 13 11 11 9 8 7 7 8 7 7 6 7 7 7 3 1 2 3 3 2 2 3 4 4 5 5 6 6 6 7 7 8 10 8 5 5 4 4 3 4 3 2
11 13 12 12 10 9 8 7 7 7 7 7 6 3 3 5 3 3 2 2 2 2 2 2 3 3 3 4 4 4 6 6 7 7 7 4 5 4 3 2 3 5 4
5 6 7 9 11 10 8 8 7 7 7 6 4 2 1 3 3 1 3 4 3 3 3 3 3 3 2 2 3 3 4 5 5 5 6 4 4 4 2 2 1 3 5
6 4 3 5 8 10 10 8 7 7 7 6 4 5 2 1 3 2 3 3 3 4 4 4 3 4 4 4 3 3 4 5 5 5 5 4 2 3 3 1 1 1 2
3 4 4 3 5 8 10 10 10 8 7 6 5 6 5 4 3 4 5 5 5 5 5 5 5 5 5 4 4 4 4 5 6 6 6 5 2 2 3 1 0 1 2
5 2 1 1 2 4 6 8 9 9 8 7 6 6 5 6 5 5 6 6 6 6 6 5 6 5 6 6 5 4 4 3 4 5 6 7 6 3 0 2 1 1 3
7 4 2 1 2 3 4 5 7 8 9 7 5 5 5 6 6 5 5 5 6 6 7 6 6 6 6 7 6 6 5 5 4 4 5 6 6 5 2 0 1 1 2
5 4 3 2 2 3 3 4 4 7 10 8 6 5 5 5 6 4 4 4 4 5 5 5 5 6 6 7 7 7 7 6 6 6 6 6 8 9 6 4 2 1 2
6 6 5 4 2 1 2 3 3 4 8 8 6 5 3 2 3 3 4 4 4 4 4 4 4 6 6 9 12 8 6 7 7 7 8 8 10 13 14 13 11 8 5
11 10 10 10 9 8 7 6 5 5 4 3 2 1 1 1 2 2 3 4 4 4 4 4 3 4 5 11 12 10 5 5 7 8 8 8 10 14 10 13 16 14 15
13 12 11 11 11 11 11 10 9 9 8 7 5 5 4 4 3 3 4 4 4 4 5 5 5 4 5 10 11 10 5 4 5 6 8 9 8 11 12 10 9 10 10
10 9 10 10 10 10 9 9 9 9 8 7 7 8 8 7 6 5 4 4 4 4 3 4 5 5 4 9 9 8 4 4 5 5 5 4 4 8 13 8 6 5 4
8 8 9 9 9 9 9 9 9 8 7 7 7 7 6 6 6 6 5 4 3 3 3 2 1 2 2 8 9 8 3 3 3 3 2 2 4 4 6 5 4 3 3
6 6 6 6 7 8 9 8 7 7 6 5 5 5 5 4 4 5 4 4 3 3 3 3 2 2 0 5 8 8 2 1 2 2 2 2 6 6 5 2 1 2 0
5 5 4 4 5 6 6 6 5 4 4 3 3 3 4 4 4 4 3 3 2 2 2 1 1 1 0 3 5 6 4 0 1 2 1 3 6 6 4 3 5 4 1
4 3 3 3 5 5 5 4 3 2 3 3 2 3 4 3 3 3 3 2 2 2 2 2 2 1 1 1 3 4 3 2 0 1 4 7 6 4 3 4 4 2 1
4 0 1 3 3 3 3 4 3 4 1 3 2 4 4 3 4 4 5 5 5 5 4 4 3 3 2 2 1 1 2 3 2 2 5 6 4 0 1 4 2 2 1
3 1 1 2 1 1 3 4 4 5 4 3 4 4 4 3 3 4 5 5 6 5 4 4 4 4 3 4 5 2 1 1 1 2 2 2 2 2 2 2 2 1 1
2 2 1 2 3 2 3 4 3 4 5 4 4 3 2 2 2 3 4 7 6 7 8 7 5 3 4 6 4 2 2 3 3 2 1 2 2 3 3 2 2 1 2
Wind_Direction
181 150 129 122 132 137 139 134 137 135 117 116 137 145 159 133 126 139 175 202 250 236 174 161 191 192 158 157 160 131 128 123 153 113 104 273 309 102 129 111 104 108 133
151 126 125 125 133 121 115 116 118 122 123 126 140 150 161 172 168 173 194 204 232 245 208 176 171 173 155 164 174 132 133 160 179 136 136 226 354 328 153 84 142 156 162
155 141 139 131 121 116 118 111 117 121 128 136 136 157 152 212 187 189 204 211 217 239 232 200 171 171 160 167 173 148 149 167 233 172 153 171 198 210 178 198 202 127 124
150 139 138 133 130 125 121 122 131 145 156 164 185 196 185 201 206 196 198 207 210 222 228 220 195 180 168 170 182 173 162 160 199 254 217 193 168 165 173 217 197 166 181
137 135 136 137 133 129 128 132 144 154 161 178 184 204 214 213 230 207 185 197 200 206 207 215 205 194 180 182 185 193 180 178 181 223 257 250 213 200 145 181 196 173 179
132 130 128 122 123 134 141 142 149 149 155 175 188 200 216 217 225 218 183 181 182 202 208 209 208 202 194 197 198 208 200 194 191 206 237 230 202 230 184 167 178 178 194
137 128 124 122 130 143 150 149 157 149 162 186 211 210 209 219 213 199 184 178 183 194 213 207 210 209 210 208 206 215 220 207 199 204 222 235 204 204 223 170 177 175 171
136 132 136 137 146 155 160 161 162 161 169 197 219 214 188 188 214 143 145 164 172 183 204 198 205 215 217 215 213 215 220 218 210 208 212 242 236 208 214 182 155 144 162
143 145 149 151 159 163 167 169 164 166 172 205 226 225 168 155 159 151 144 129 143 165 188 175 185 196 205 211 211 214 219 216 212 203 203 223 257 227 197 168 138 144 166
108 131 147 160 164 166 170 177 179 179 176 205 201 141 69 131 119 120 149 154 173 168 164 203 185 170 174 195 205 216 221 216 215 202 194 209 264 264 210 162 154 150 157
110 118 156 195 171 167 170 176 187 190 172 185 177 141 171 159 149 174 147 148 169 169 184 200 199 175 175 185 194 210 216 222 220 210 194 194 251 300 282 178 169 209 167
120 148 161 180 184 179 179 184 190 190 171 174 166 162 172 167 195 191 172 177 183 183 200 194 198 184 177 178 183 199 205 212 213 198 174 156 145 19 308 313 260 262 258
337 351 99 161 210 199 192 192 189 181 165 167 166 167 177 184 204 209 182 182 184 187 203 202 196 186 175 176 178 177 174 172 173 169 155 136 127 111 18 1 351 311 297
313 316 325 258 227 226 217 204 189 171 159 158 167 182 205 190 195 210 188 186 196 193 201 209 195 181 175 175 176 174 170 164 160 158 149 143 143 150 147 344 331 330 306
296 302 292 265 223 209 212 209 193 168 154 152 173 194 226 202 187 197 184 199 217 212 210 209 196 185 178 183 180 177 181 180 183 187 187 183 182 182 188 203 221 252 274
15 6 2 13 348 222 182 163 147 145 148 155 180 193 215 233 183 189 194 210 217 228 235 217 202 191 193 182 178 178 186 186 194 200 203 204 204 207 210 219 224 220 228
34 32 35 33 28 40 56 77 78 83 100 121 127 143 200 274 266 242 233 223 217 217 239 244 225 204 170 165 174 184 191 199 205 208 207 211 211 208 215 223 231 236 238
36 36 40 42 45 48 49 54 53 50 50 42 31 26 21 3 343 314 286 266 247 227 219 228 235 229 184 180 180 182 205 235 235 222 214 212 214 206 207 216 223 227 231
30 33 38 47 46 45 51 60 60 54 47 35 31 35 33 23 8 349 324 305 291 280 258 237 231 230 200 190 186 176 204 239 255 256 241 221 219 209 198 203 218 231 229
26 34 34 40 47 45 46 54 56 54 46 36 37 38 35 24 7 351 344 342 337 330 333 321 305 260 204 187 191 193 213 244 269 294 281 152 127 122 173 195 209 231 235
29 45 43 38 48 58 57 53 52 54 52 42 42 41 31 29 15 355 356 3 13 14 12 10 9 4 20 174 190 195 216 254 319 329 335 103 127 125 130 118 114 148 106
47 50 54 48 47 54 71 68 49 54 70 55 47 70 60 30 19 4 1 6 22 30 22 13 360 342 18 152 189 199 210 198 340 319 336 116 133 126 116 105 120 109 67
73 66 67 70 72 58 53 68 44 6 87 68 40 75 92 67 27 8 2 4 17 31 37 36 30 15 35 129 178 197 198 173 179 81 100 128 139 133 124 130 131 135 176
88 85 202 98 81 80 70 56 15 333 87 113 78 79 75 69 52 28 18 26 24 23 28 29 18 10 20 36 30 204 183 161 156 137 119 127 132 217 153 145 173 224 229
124 259 10 55 76 96 88 75 28 339 336 92 91 89 86 85 82 69 44 32 50 37 23 14 7 9 13 10 355 1 29 130 145 140 147 161 163 190 189 169 178 182 160
129 145 120 293 304 44 65 84 50 347 356 50 61 69 89 88 106 130 108 59 61 56 52 40 18 6 358 338 350 32 76 89 85 97 208 222 207 192 175 173 179 193 210